Regional Weather Roundup
Issued by NWS

Home | Current Version | Previous Version | Graphics & Text | Print | Product List | Glossary On
Versions: 1 2 3 4 5 6 7 8 9 10 11 12 13 14 15 16 17 18 19 20 21 22 23 24 25 26 27 28 29 30 31 32 33 34 35 36 37 38 39 40 41 42 43 44 45 46 47 48 49 50
000
ASUS45 KBOI 030210
RWRID
WEATHER ROUNDUP FOR IDAHO
NATIONAL WEATHER SERVICE BOISE ID
800 PM MDT SAT MAY 02 2015

NOTE: "FAIR" INDICATES FEW OR NO CLOUDS BELOW 12000 FEET
WITH NO SIGNIFICANT WEATHER AND/OR OBSTRUCTIONS TO VISIBILITY

IDZ012-014-030300-
SOUTHWEST IDAHO


CITY           SKY/WX    TMP DP  RH WIND       PRES   REMARKS
BOISE          PTCLDY    76  25  15 N15       29.74F
CALDWELL       PTCLDY    73  34  23 N6        29.76S
MOUNTAIN HOME  CLEAR     77  29  17 NW8       29.74F
$$

IDZ016-017-030300-
SOUTHCENTRAL IDAHO


CITY           SKY/WX    TMP DP  RH WIND       PRES   REMARKS
BURLEY         PTCLDY    71  33  24 W6        29.79S
JEROME         CLEAR     72  26  18 SW9       29.80F
TWIN FALLS     PTCLDY    71  31  22 W7        29.81S
$$

IDZ019>023-030300-
SOUTHEAST IDAHO


CITY           SKY/WX    TMP DP  RH WIND       PRES   REMARKS
IDAHO FALLS    CLEAR     71  22  15 W17G24    29.78S
POCATELLO      PTCLDY    72  27  18 W14       29.81S
REXBURG        PTCLDY    70  20  15 SW17      29.76S
$$

IDZ006-010-011-018-031-032-030300-
CENTRAL IDAHO MOUNTAINS


CITY           SKY/WX    TMP DP  RH WIND       PRES   REMARKS
MCCALL         CLEAR     62  25  24 W5        29.86F
HAILEY         PTCLDY    66  28  24 W8        29.85S
STANLEY          N/A     60  17  18 VRB6      29.93S
SALMON         PTCLDY    64  32  29 N8        29.78R
CHALLIS        PTCLDY    67  16  14 SW12      29.82S
$$

IDZ002-004-006-007-026-030300-
NORTHERN IDAHO


CITY           SKY/WX    TMP DP  RH WIND       PRES   REMARKS
LEWISTON       CLEAR     67  27  22 NW8       29.88S
LOWELL           N/A     60  39  45 CALM      29.86F
COEUR D`ALENE  CLEAR     63  25  23 NW6       29.90S
MULLAN PASS    CLEAR     45  17  32 VRB3      29.94S
$$



USA.gov is the U.S. government's official web portal to all federal, state and local government web resources and services.